This is the latest recevied weather packets stored in our database for station/object KY4LEX. If no packets are shown the sender has not sent any weather packets the latest 10 day(s).
| Time | Temp. | Humidity | Pressure | Rain* | Wind** | Luminosity | Snow |
|---|---|---|---|---|---|---|---|
| 1777890000 | 10.56° C | 85% | 1018.9 hPa | 1.27 mm | - | 0 W/m² | - |
| 1777889699 | 10.56° C | 85% | 1018.8 hPa | 1.78 mm | - | 0 W/m² | - |
| 1777889395 | 10.56° C | 86% | 1018.8 hPa | 1.78 mm | - | 0 W/m² | - |
| 1777889093 | 11.11° C | 85% | 1018.5 hPa | 1.27 mm | - | 0 W/m² | - |
| 1777888790 | 11.11° C | 82% | 1018.1 hPa | 0 mm | - | 0 W/m² | - |
| 1777887577 | 11.11° C | 82% | 1017.6 hPa | 0 mm | - | 0 W/m² | - |
| 1777887272 | 11.11° C | 80% | 1017.7 hPa | 0 mm | - | 0 W/m² | - |
| 1777886969 | 11.11° C | 79% | 1017.7 hPa | 0 mm | - | 0 W/m² | - |
| 1777886665 | 11.67° C | 75% | 1017.4 hPa | 0 mm | - | 0 W/m² | - |
| 1777886362 | 11.67° C | 71% | 1017.4 hPa | 0 mm | - | 0 W/m² | - |
| 1777886060 | 11.67° C | 70% | 1017.4 hPa | 0 mm | - | 0 W/m² | - |
| 1777885758 | 11.67° C | 69% | 1017.7 hPa | 0 mm | - | 0 W/m² | - |
| 1777885455 | 11.11° C | 70% | 1017.7 hPa | 0 mm | - | 0 W/m² | - |
| 1777885155 | 11.11° C | 69% | 1017.7 hPa | 0 mm | - | 0 W/m² | - |
| 1777884851 | 11.11° C | 68% | 1017.8 hPa | 0 mm | - | 0 W/m² | - |
| 1777884548 | 11.11° C | 68% | 1017.8 hPa | 0 mm | - | 0 W/m² | - |
| 1777884245 | 11.11° C | 68% | 1017.8 hPa | 0 mm | - | 0 W/m² | - |
| 1777883940 | 11.11° C | 67% | 1018 hPa | 0 mm | - | 0 W/m² | - |
| 1777883637 | 11.11° C | 67% | 1018 hPa | 0 mm | - | 0 W/m² | - |
| 1777883333 | 11.11° C | 68% | 1018.2 hPa | 0 mm | - | 0 W/m² | - |
| 1777883030 | 11.11° C | 66% | 1018.2 hPa | 0 mm | - | 0 W/m² | - |
| 1777882727 | 11.11° C | 65% | 1018.3 hPa | 0 mm | - | 0 W/m² | - |
| 1777882423 | 11.11° C | 64% | 1018.3 hPa | 0 mm | - | 0 W/m² | - |
| 1777882119 | 11.67° C | 63% | 1018.2 hPa | 0 mm | - | 0 W/m² | - |
| 1777881817 | 11.67° C | 62% | 1018.2 hPa | 0 mm | - | 0 W/m² | - |
* Rain latest hour (hover to see other rain measurements)
** Current wind speed in m/s (hover to see current wind gust speed)